Location: Prostejov
(49.4670°N, 17.1170°E)
Time: 00:58:50
(UTC+01:00)

ISS - Visible Passes

Search period start: 19 November 2019 00:00
Search period end: 29 November 2019 00:00
Orbit: 412 x 421 km, 51.6° (Epoch: 19 November)

Date Brightness Start Highest point End Pass type
(mag) Time Alt. Az. Time Alt. Az. Time Alt. Az.
22 Nov -1.4 18:28:55 10° SSW 18:29:57 17° SSW 18:29:57 17° SSW visible
23 Nov -2.1 17:41:06 10° S 17:43:38 20° SE 17:43:43 20° SE visible
24 Nov -1.5 16:53:44 10° SSE 16:55:25 13° SE 16:57:07 10° ESE visible
24 Nov -2.2 18:28:18 10° SW 18:30:19 32° SW 18:30:19 32° SW visible
25 Nov -3.1 17:40:05 10° SW 17:43:15 41° SSE 17:43:56 36° ESE visible
25 Nov -0.3 19:16:35 10° W 19:16:51 12° W 19:16:51 12° W visible
26 Nov -2.4 16:52:01 10° SSW 16:54:56 28° SE 16:57:30 12° E visible
26 Nov -2.5 18:28:05 10° WSW 18:30:24 41° W 18:30:24 41° W visible
27 Nov -3.8 17:39:39 10° WSW 17:43:00 78° SSE 17:43:54 45° E visible
27 Nov -0.3 19:16:33 10° W 19:16:48 12° W 19:16:48 12° W visible
28 Nov -3.4 16:51:18 10° SW 16:54:34 56° SSE 16:57:22 14° ENE visible
28 Nov -2.3 18:28:01 10° W 18:30:16 37° WNW 18:30:16 37° WNW visible
